Location: Buckland
(65.9785°N, 161.1281°W)
Time: 04:13:51
(UTC+00:00)

Transit 4A - Pass Details

Date: 01 December 2020
Orbit: 864 x 980 km, 66.8° (Epoch: 26 January)

Event Time Altitude Azimuth Distance (km) Brightness Sun altitude
Rises 16:49:41 0° 154° (SSE) 3,659 11.6 -18.4°
Reaches altitude 10° 16:53:40 10° 129° (SE) 2,729 11.3 -18.0°
Maximum altitude 16:56:35 14° 102° (ESE) 2,485 11.3 -17.7°
Drops below altitude 10° 16:59:29 10° 75° (ENE) 2,743 11.3 -17.4°
Sets 17:03:30 0° 51° (NE) 3,693 11.5 -17.0°
